Regional Weather Roundup
Issued by NWS

Home | Current Version | Previous Version | Graphics & Text | Print | Product List | Glossary On
Versions: 1 2 3 4 5 6 7 8 9 10 11 12 13 14 15 16 17 18 19 20 21 22 23 24 25 26 27 28 29 30 31 32 33 34 35 36 37 38 39 40 41 42 43 44 45 46 47 48 49 50
000
ASUS45 KBOI 171310
RWRID
WEATHER ROUNDUP FOR IDAHO
NATIONAL WEATHER SERVICE BOISE ID
700 AM MDT WED SEP 17 2014

NOTE: "FAIR" INDICATES FEW OR NO CLOUDS BELOW 12000 FEET
WITH NO SIGNIFICANT WEATHER AND/OR OBSTRUCTIONS TO VISIBILITY

IDZ012-014-171400-
SOUTHWEST IDAHO


CITY           SKY/WX    TMP DP  RH WIND       PRES   REMARKS
BOISE          CLOUDY    69  42  37 E5        29.84R
CALDWELL       CLOUDY    59  45  58 CALM      29.85R
MOUNTAIN HOME  CLOUDY    65  41  41 E9        29.85R
$$

IDZ016-017-171400-
SOUTHCENTRAL IDAHO


CITY           SKY/WX    TMP DP  RH WIND       PRES   REMARKS
BURLEY         PTCLDY    53  47  79 NW5       29.94R
JEROME         PTCLDY    61  44  53 E13       29.93R
TWIN FALLS     PTCLDY    62  41  46 S7        29.93R
$$

IDZ019>023-171400-
SOUTHEAST IDAHO


CITY           SKY/WX    TMP DP  RH WIND       PRES   REMARKS
IDAHO FALLS    MOCLDY    53  44  71 CALM      30.02R
POCATELLO      PTCLDY    63  50  62 N10       29.96F
REXBURG        PTCLDY    49  42  77 NE5       30.02R
$$

IDZ006-010-011-018-031-032-171400-
CENTRAL IDAHO MOUNTAINS


CITY           SKY/WX    TMP DP  RH WIND       PRES   REMARKS
MCCALL         CLOUDY    51  42  71 CALM      29.97R
HAILEY         MOCLDY    59  36  41 N9G17     30.05F
STANLEY          N/A     37  31  78 CALM      30.14S
SALMON         PTCLDY    45  39  81 CALM      30.01S
CHALLIS        PTCLDY    47  41  80 CALM      30.05S
$$

IDZ002-004-006-007-026-171400-
NORTHERN IDAHO


CITY           SKY/WX    TMP DP  RH WIND       PRES   REMARKS
LEWISTON       MOCLDY    60  36  40 CALM      29.82S
LOWELL           N/A     53  50  89 CALM      29.89R
COEUR D`ALENE  MOCLDY    54  45  71 SE5       29.85S
MULLAN PASS    PTCLDY    60  37  42 S5        30.01F
$$



USA.gov is the U.S. government's official web portal to all federal, state and local government web resources and services.